Date String (YYYY-MM-DD hh:mm:ss) UTC,Instrument flags,absolute air pressure of the measurement (hPa),sample flow rate (lpm),inlet stack bypass flow (lpm),air temperature of the measurement (°C),ambient temperature measured by the external sensor (°C),aerosol sample conditioner tube jacket temperature (°C),OPC LED temperature (°C),internal box temperature (°C),relative humidity of the measurement (%),span deviation,mass concentration of particles derived from Lorenz-Mie calculation of OPC scattering (μg/m³),mass concentration of particles derived from Lorenz-Mie calculation of OPC scattering (μg/m³),mass concentration of particles derived from Lorenz-Mie calculation of OPC scattering (μg/m³)
DateTimeUTC,F1_M11,P_M11,Q1_M11,Q2_M11,T1_M11,T2_M11,T3_M11,T4_M11,T5_M11,U1_M11,ZSPAN_M11,X2_M11,X0_M11,X1_M11
2023-08-23 20:00:00,SystemResetWarning,0835.1,5.00,000.00,027.6,025.4,000.0,035.8,029.3,27.0,0002.2,0008.78,0019.74,0007.76
2023-08-23 20:01:00,SystemResetWarning,0835.1,5.00,000.00,027.6,025.9,000.0,035.9,029.4,26.1,0001.8,0008.71,0019.49,0007.73
2023-08-23 20:02:00,SystemResetWarning,0834.9,5.00,000.00,027.7,026.2,000.0,035.9,029.5,26.6,0001.8,0008.64,0017.31,0007.69
2023-08-23 20:03:00,SystemResetWarning,0835.1,4.98,000.00,027.7,025.2,000.0,035.8,029.3,26.6,0001.6,0008.58,0016.28,0007.65
2023-08-23 20:04:00,SystemResetWarning,0834.7,5.01,000.00,027.6,024.1,000.0,035.7,029.0,27.3,0001.5,0008.59,0015.64,0007.63
2023-08-23 20:05:00,SystemResetWarning,0834.5,5.01,000.00,027.5,024.3,000.0,035.7,029.0,27.3,0001.5,0008.59,0015.98,0007.61
2023-08-23 20:06:00,SystemResetWarning,0834.5,5.00,000.00,027.5,024.7,000.0,035.8,029.0,27.2,0001.6,0008.50,0016.11,0007.59
2023-08-23 20:07:00,SystemResetWarning,0834.5,5.00,000.00,027.5,025.2,000.0,035.8,029.2,26.3,0001.2,0008.40,0015.57,0007.56
2023-08-23 20:08:00,SystemResetWarning,0834.5,5.00,000.00,027.6,025.7,000.0,035.8,029.3,26.4,0001.3,0008.39,0015.01,0007.53
2023-08-23 20:09:00,SystemResetWarning,0834.5,5.00,000.00,027.6,026.1,000.0,035.9,029.5,27.0,0000.8,0008.43,0015.07,0007.48
2023-08-23 20:10:00,SystemResetWarning,0834.5,5.01,000.00,027.7,026.4,000.0,035.9,029.6,26.9,0000.8,0008.48,0015.19,0007.48
2023-08-23 20:11:00,SystemResetWarning,0834.4,4.98,000.00,027.7,025.4,000.0,035.8,029.3,27.4,0001.0,0008.48,0015.56,0007.48
2023-08-23 20:12:00,SystemResetWarning,0834.4,5.00,000.00,027.6,024.3,000.0,035.8,029.1,27.6,0001.4,0008.47,0016.06,0007.46
2023-08-23 20:13:00,SystemResetWarning,0834.3,5.02,000.00,027.6,024.5,000.0,035.7,029.1,26.8,0001.6,0008.47,0016.76,0007.46
2023-08-23 20:14:00,SystemResetWarning,0834.3,5.00,000.00,027.5,024.9,000.0,035.8,029.1,27.1,0001.7,0008.50,0018.26,0007.46
2023-08-23 20:15:00,SystemResetWarning,0834.3,5.00,000.00,027.6,025.3,000.0,035.8,029.3,26.5,0001.9,0008.48,0018.24,0007.45
2023-08-23 20:16:00,SystemResetWarning,0834.4,5.00,000.00,027.6,025.8,000.0,035.9,029.4,26.4,0001.9,0008.46,0017.92,0007.45
2023-08-23 20:17:00,SystemResetWarning,0834.4,5.00,000.00,027.7,026.2,000.0,035.9,029.5,26.1,0002.0,0008.50,0017.41,0007.47
2023-08-23 20:18:00,SystemResetWarning,0834.3,4.98,000.00,027.7,025.9,000.0,035.9,029.5,26.2,0002.2,0008.57,0018.02,0007.51
2023-08-23 20:19:00,SystemResetWarning,0834.4,5.00,000.00,027.7,024.6,000.0,035.8,029.2,26.9,0002.6,0008.55,0018.57,0007.52
2023-08-23 20:20:00,SystemResetWarning,0834.5,5.01,000.00,027.6,024.3,000.0,035.7,029.1,28.0,0002.7,0008.54,0018.45,0007.55
2023-08-23 20:21:00,SystemResetWarning,0834.4,5.01,000.00,027.6,024.8,000.0,035.8,029.1,28.1,0002.6,0008.52,0018.46,0007.58
2023-08-23 20:22:00,SystemResetWarning,0834.4,5.00,000.00,027.6,025.2,000.0,035.8,029.2,27.8,0002.3,0008.51,0018.33,0007.59
2023-08-23 20:23:00,SystemResetWarning,0834.4,5.00,000.00,027.6,025.7,000.0,035.9,029.4,28.1,0002.0,0008.56,0018.11,0007.63
2023-08-23 20:24:00,SystemResetWarning,0834.4,5.00,000.00,027.7,026.1,000.0,035.9,029.5,27.7,0002.0,0008.58,0017.77,0007.65
2023-08-23 20:25:00,SystemResetWarning,0834.4,4.98,000.00,027.7,025.9,000.0,035.9,029.4,26.4,0002.2,0008.61,0016.21,0007.66
2023-08-23 20:26:00,SystemResetWarning,0834.4,5.00,000.00,027.7,024.5,000.0,035.8,029.1,26.1,0002.2,0008.68,0015.97,0007.68
2023-08-23 20:27:00,SystemResetWarning,0834.3,5.01,000.00,027.6,023.6,000.0,035.7,028.8,26.6,0002.0,0008.72,0015.99,0007.70
2023-08-23 20:28:00,SystemResetWarning,0834.3,5.02,000.00,027.5,023.9,000.0,035.7,028.9,26.4,0001.9,0008.75,0016.46,0007.71
2023-08-23 20:29:00,SystemResetWarning,0834.3,5.00,000.00,027.5,024.4,000.0,035.7,029.0,26.7,0001.5,0008.78,0016.28,0007.71
2023-08-23 20:30:00,SystemResetWarning,0834.3,5.00,000.00,027.5,024.9,000.0,035.8,029.1,26.6,0001.2,0008.86,0016.05,0007.75
2023-08-23 20:31:00,SystemResetWarning,0834.4,4.99,000.00,027.5,025.4,000.0,035.8,029.3,25.9,0001.1,0008.90,0016.05,0007.78
2023-08-23 20:32:00,SystemResetWarning,0834.3,5.00,000.00,027.6,025.9,000.0,035.8,029.4,25.8,0001.0,0008.96,0016.06,0007.83
2023-08-23 20:33:00,SystemResetWarning,0834.3,5.00,000.00,027.6,026.2,000.0,035.9,029.5,25.9,0001.3,0009.03,0015.88,0007.87
2023-08-23 20:34:00,SystemResetWarning,0834.6,4.99,000.00,027.6,025.2,000.0,035.8,029.2,25.7,0001.6,0009.03,0015.86,0007.90
2023-08-23 20:35:00,SystemResetWarning,0834.4,5.00,000.00,027.5,023.9,000.0,035.7,028.9,26.2,0001.6,0009.03,0016.92,0007.92
2023-08-23 20:36:00,SystemResetWarning,0834.3,5.01,000.00,027.5,023.6,000.0,035.7,028.8,26.2,0001.6,0009.10,0017.49,0007.96
2023-08-23 20:37:00,SystemResetWarning,0834.6,5.01,000.00,027.4,024.0,000.0,035.7,028.8,26.0,0001.7,0009.14,0017.86,0007.99
2023-08-23 20:38:00,SystemResetWarning,0834.6,5.00,000.00,027.4,024.5,000.0,035.7,028.9,26.0,0001.9,0009.20,0017.91,0008.04
2023-08-23 20:39:00,SystemResetWarning,0834.6,5.00,000.00,027.4,025.0,000.0,035.7,029.1,26.2,0001.9,0009.22,0017.99,0008.06
2023-08-23 20:40:00,SystemResetWarning,0834.3,5.01,000.00,027.5,025.6,000.0,035.8,029.3,26.3,0002.1,0009.17,0018.42,0008.08
2023-08-23 20:41:00,SystemResetWarning,0834.3,5.00,000.00,027.5,025.9,000.0,035.8,029.4,26.2,0002.1,0009.15,0018.04,0008.09
2023-08-23 20:42:00,SystemResetWarning,0834.2,4.98,000.00,027.5,025.0,000.0,035.7,029.2,26.4,0002.1,0009.14,0017.53,0008.10
2023-08-23 20:43:00,SystemResetWarning,0834.1,5.01,000.00,027.5,024.0,000.0,035.6,028.9,26.5,0002.2,0009.15,0017.46,0008.11
2023-08-23 20:44:00,SystemResetWarning,0834.2,5.01,000.00,027.4,024.3,000.0,035.6,029.0,26.1,0002.3,0009.18,0018.04,0008.12
2023-08-23 20:45:00,SystemResetWarning,0834.1,5.00,000.00,027.4,024.7,000.0,035.7,029.0,26.1,0002.2,0009.19,0017.92,0008.13
2023-08-23 20:46:00,SystemResetWarning,0834.1,5.00,000.00,027.4,025.2,000.0,035.7,029.2,26.2,0002.0,0009.23,0017.60,0008.16
2023-08-23 20:47:00,SystemResetWarning,0834.1,5.00,000.00,027.5,025.6,000.0,035.7,029.3,26.6,0001.8,0009.25,0017.69,0008.18
2023-08-23 20:48:00,SystemResetWarning,0834.1,5.00,000.00,027.6,026.1,000.0,035.8,029.4,26.2,0001.4,0009.20,0017.25,0008.18
2023-08-23 20:49:00,SystemResetWarning,0834.1,4.99,000.00,027.6,025.8,000.0,035.8,029.3,26.6,0001.2,0009.16,0017.13,0008.17
2023-08-23 20:50:00,SystemResetWarning,0834.0,4.99,000.00,027.5,024.6,000.0,035.7,029.1,26.3,0001.1,0009.14,0017.46,0008.18
2023-08-23 20:51:00,SystemResetWarning,0834.0,5.03,000.00,027.5,024.3,000.0,035.6,029.0,26.5,0000.8,0009.17,0017.08,0008.18
2023-08-23 20:52:00,SystemResetWarning,0834.0,5.00,000.00,027.5,024.7,000.0,035.7,029.0,26.8,0000.7,0009.20,0017.15,0008.20
2023-08-23 20:53:00,SystemResetWarning,0834.0,5.00,000.00,027.5,025.1,000.0,035.7,029.1,26.9,0000.9,0009.22,0017.24,0008.20
2023-08-23 20:54:00,SystemResetWarning,0834.0,5.00,000.00,027.5,025.5,000.0,035.7,029.3,26.8,0001.0,0009.20,0017.18,0008.19
2023-08-23 20:55:00,SystemResetWarning,0834.0,4.99,000.00,027.5,025.1,000.0,035.7,029.2,27.1,0000.9,0009.16,0017.23,0008.16
2023-08-23 20:56:00,SystemResetWarning,0834.0,4.99,000.00,027.5,024.1,000.0,035.6,028.9,27.6,0000.9,0009.20,0017.52,0008.15
2023-08-23 20:57:00,SystemResetWarning,0834.0,5.02,000.00,027.4,024.1,000.0,035.6,028.9,28.3,0000.7,0009.23,0017.65,0008.16
2023-08-23 20:58:00,SystemResetWarning,0834.0,5.00,000.00,027.4,024.5,000.0,035.6,028.9,28.2,0001.0,0009.15,0017.57,0008.15
2023-08-23 20:59:00,SystemResetWarning,0834.0,5.00,000.00,027.4,025.0,000.0,035.7,029.0,26.7,0001.3,0009.20,0017.71,0008.17
